AA6HF Weather Reports


time (UTC)temp
C
wind
direction
speed
KPH
gust
KPH
rain 1hr
cm
rain 24hr
cm
rain mn
cm
humidity
%
barometer
mb
20260507084516 18 1 0.0 0.0 0.00 0.00 0.00 58 1012.0
20260507084016 18 1 0.0 0.0 0.00 0.00 0.00 57 1012.1
20260507083516 18 1 0.0 0.0 0.00 0.00 0.00 57 1012.1
20260507083016 18 1 0.0 0.0 0.00 0.00 0.00 57 1012.1
20260507082516 18 1 0.0 0.0 0.00 0.00 0.00 56 1012.1
20260507082016 18 1 0.0 0.0 0.00 0.00 0.00 56 1012.2
20260507081516 19 1 0.0 0.0 0.00 0.00 0.00 55 1012.2
20260507081016 19 1 0.0 0.0 0.00 0.00 0.00 54 1012.2
20260507080516 20 1 0.0 0.0 0.00 0.00 0.00 52 1012.3
20260507080016 20 1 0.0 0.0 0.00 0.00 0.00 52 1012.3
20260507075516 20 1 0.0 0.0 0.00 0.00 0.00 52 1012.2
20260507075016 20 1 0.0 0.0 0.00 0.00 0.00 52 1012.2
20260507074516 20 1 0.0 0.0 0.00 0.00 0.00 52 1012.3
20260507074016 20 1 0.0 0.0 0.00 0.00 0.00 52 1012.3
20260507073516 20 20 0.0 0.0 0.00 0.00 0.00 52 1012.4
20260507073016 20 20 0.0 0.0 0.00 0.00 0.00 51 1012.4
20260507072516 20 19 0.0 1.6 0.00 0.00 0.00 52 1012.4
20260507072016 20 35 0.0 1.6 0.00 0.00 0.00 53 1012.4
20260507071516 20 330 0.0 0.0 0.00 0.00 0.00 50 1012.5
20260507071016 21 330 0.0 0.0 0.00 0.00 0.00 48 1012.5
20260507070516 21 330 0.0 0.0 0.00 0.00 0.00 48 1012.5
20260507070016 21 330 0.0 0.0 0.00 0.00 0.00 47 1012.5
20260507065516 21 330 0.0 0.0 0.00 0.00 0.00 47 1012.5
20260507065016 21 332 0.0 3.2 0.00 0.00 0.00 47 1012.5
20260507064516 21 341 0.0 0.0 0.00 0.00 0.00 48 1012.6
20260507064016 20 351 0.0 0.0 0.00 0.00 0.00 49 1012.6
20260507063516 21 351 0.0 0.0 0.00 0.00 0.00 48 1012.6
20260507063016 21 351 0.0 0.0 0.00 0.00 0.00 48 1012.6
20260507062516 21 351 0.0 0.0 0.00 0.00 0.00 46 1012.6
20260507062016 21 351 0.0 0.0 0.00 0.00 0.00 45 1012.6
20260507061516 21 351 0.0 0.0 0.00 0.00 0.00 44 1012.6
20260507061016 21 352 0.0 0.0 0.00 0.00 0.00 44 1012.6
20260507060516 21 352 0.0 0.0 0.00 0.00 0.00 43 1012.5
20260507060016 21 351 0.0 0.0 0.00 0.00 0.00 43 1012.5
20260507055517 21 352 0.0 0.0 0.00 0.00 0.00 42 1012.6
20260507055017 21 328 0.0 0.0 0.00 0.00 0.00 41 1012.6
20260507054517 21 153 0.0 0.0 0.00 0.00 0.00 39 1012.6
20260507054017 21 153 0.0 0.0 0.00 0.00 0.00 38 1012.7
20260507053517 21 154 0.0 0.0 0.00 0.00 0.00 39 1012.7
20260507053017 22 154 0.0 0.0 0.00 0.00 0.00 38 1012.6
20260507052517 22 153 0.0 0.0 0.00 0.00 0.00 37 1012.6
20260507052017 22 154 0.0 0.0 0.00 0.00 0.00 36 1012.6
20260507051517 22 154 0.0 0.0 0.00 0.00 0.00 35 1012.6
20260507051017 23 153 0.0 0.0 0.00 0.00 0.00 31 1012.6
20260507050517 23 153 0.0 0.0 0.00 0.00 0.00 30 1012.5
20260507050017 23 153 0.0 0.0 0.00 0.00 0.00 29 1012.5
20260507045517 23 153 0.0 0.0 0.00 0.00 0.00 29 1012.5
20260507045017 24 154 0.0 0.0 0.00 0.00 0.00 28 1012.5
20260507044517 24 158 0.0 0.0 0.00 0.00 0.00 28 1012.5
20260507044017 24 156 0.0 0.0 0.00 0.00 0.00 29 1012.5
20260507043517 24 156 0.0 0.0 0.00 0.00 0.00 29 1012.5
20260507043017 24 163 0.0 0.0 0.00 0.00 0.00 29 1012.4
20260507042517 24 148 0.0 0.0 0.00 0.00 0.00 29 1012.4
20260507042017 25 148 0.0 0.0 0.00 0.00 0.00 28 1012.4
20260507041517 25 148 0.0 0.0 0.00 0.00 0.00 28 1012.4
20260507041017 25 145 0.0 0.0 0.00 0.00 0.00 28 1012.5
20260507040517 25 144 0.0 0.0 0.00 0.00 0.00 28 1012.3
20260507040017 25 142 0.0 0.0 0.00 0.00 0.00 28 1012.3
20260507035517 25 143 0.0 0.0 0.00 0.00 0.00 28 1012.2
20260507035017 25 142 0.0 0.0 0.00 0.00 0.00 29 1012.1
20260507034517 25 151 0.0 0.0 0.00 0.00 0.00 29 1012.1
20260507034017 25 89 0.0 0.0 0.00 0.00 0.00 29 1012.0
20260507033517 25 89 0.0 0.0 0.00 0.00 0.00 28 1011.9
20260507033017 25 89 0.0 0.0 0.00 0.00 0.00 28 1011.8
20260507032517 25 84 0.0 0.0 0.00 0.00 0.00 28 1011.7
20260507032017 26 98 0.0 0.0 0.00 0.00 0.00 28 1011.6
20260507031517 26 112 0.0 0.0 0.00 0.00 0.00 28 1011.5
20260507031017 26 104 0.0 0.0 0.00 0.00 0.00 27 1011.4
20260507030517 26 109 0.0 0.0 0.00 0.00 0.00 27 1011.3
20260507030017 26 98 0.0 0.0 0.00 0.00 0.00 26 1011.3
20260507025517 27 113 0.0 0.0 0.00 0.00 0.00 26 1011.3
20260507025017 26 104 0.0 0.0 0.00 0.00 0.00 26 1011.3
20260507024517 26 110 0.0 0.0 0.00 0.00 0.00 26 1011.1
20260507024017 26 96 0.0 0.0 0.00 0.00 0.00 26 1011.0
20260507023517 27 104 0.0 0.0 0.00 0.00 0.00 26 1010.9
20260507023017 27 100 0.0 0.0 0.00 0.00 0.00 26 1010.8
20260507022517 27 103 0.0 0.0 0.00 0.00 0.00 25 1010.8
20260507022017 27 102 0.0 1.6 0.00 0.00 0.00 25 1010.7
20260507021518 27 68 0.0 0.0 0.00 0.00 0.00 24 1010.7
20260507021017 28 72 0.0 0.0 0.00 0.00 0.00 24 1010.6
20260507020518 28 91 0.0 0.0 0.00 0.00 0.00 24 1010.6
20260507020018 28 99 0.0 0.0 0.00 0.00 0.00 23 1010.5
20260507015518 28 103 0.0 0.0 0.00 0.00 0.00 23 1010.4
20260507015018 29 91 0.0 1.6 0.00 0.00 0.00 22 1010.3
20260507014518 30 104 0.0 4.8 0.00 0.00 0.00 22 1010.5
20260507014018 30 131 0.0 0.0 0.00 0.00 0.00 22 1010.4
20260507013518 30 118 0.0 1.6 0.00 0.00 0.00 22 1010.3
20260507013018 30 124 0.0 0.0 0.00 0.00 0.00 21 1010.3
20260507012518 30 117 0.0 1.6 0.00 0.00 0.00 21 1010.3
20260507012018 30 83 0.0 0.0 0.00 0.00 0.00 21 1010.3
20260507011518 30 110 0.0 0.0 0.00 0.00 0.00 21 1010.4
20260507011018 30 96 0.0 1.6 0.00 0.00 0.00 21 1010.3
20260507010518 30 69 0.0 0.0 0.00 0.00 0.00 20 1010.3
20260507010018 30 111 0.0 1.6 0.00 0.00 0.00 20 1010.2
20260507005518 30 77 0.0 0.0 0.00 0.00 0.00 20 1010.2
20260507005018 31 106 0.0 0.0 0.00 0.00 0.00 20 1010.2
20260507004518 31 163 0.0 1.6 0.00 0.00 0.00 20 1010.2
20260507004018 31 117 0.0 1.6 0.00 0.00 0.00 20 1010.3
20260507003518 30 131 0.0 0.0 0.00 0.00 0.00 20 1010.3
20260507003018 30 88 0.0 1.6 0.00 0.00 0.00 20 1010.2
20260507002518 30 129 0.0 1.6 0.00 0.00 0.00 20 1010.1
20260507002018 30 110 0.0 0.0 0.00 0.00 0.00 20 1010.1
20260507001518 30 96 0.0 0.0 0.00 0.00 0.00 19 1010.1
20260507001018 30 115 0.0 0.0 0.00 0.00 0.00 19 1010.0
20260507000518 31 105 0.0 0.0 0.00 0.00 0.00 19 1010.0
20260507000018 31 68 0.0 1.6 0.00 0.00 0.00 20 1010.0
20260506235518 31 96 0.0 1.6 0.00 0.00 0.00 18 1010.0
20260506235018 31 214 0.0 0.0 0.00 0.00 0.00 19 1010.0
20260506234518 31 113 0.0 0.0 0.00 0.00 0.00 19 1010.0
20260506234018 31 102 0.0 0.0 0.00 0.00 0.00 19 1010.0
20260506233518 31 150 0.0 6.4 0.00 0.00 0.00 19 1010.1
20260506233018 31 84 0.0 0.0 0.00 0.00 0.00 18 1010.2
20260506232518 31 73 0.0 0.0 0.00 0.00 0.00 19 1010.3
20260506232018 31 160 0.0 0.0 0.00 0.00 0.00 19 1010.2
20260506231518 31 91 0.0 0.0 0.00 0.00 0.00 19 1010.3
20260506231018 31 97 0.0 0.0 0.00 0.00 0.00 19 1010.3
20260506230518 31 89 0.0 1.6 0.00 0.00 0.00 19 1010.4
20260506230018 31 324 0.0 0.0 0.00 0.00 0.00 19 1010.4
20260506225518 31 100 0.0 0.0 0.00 0.00 0.00 19 1010.5
20260506225018 31 85 0.0 1.6 0.00 0.00 0.00 19 1010.5
20260506224518 31 92 0.0 0.0 0.00 0.00 0.00 18 1010.5
20260506224018 31 205 0.0 1.6 0.00 0.00 0.00 19 1010.6
20260506223518 31 101 0.0 1.6 0.00 0.00 0.00 18 1010.8
20260506223018 32 88 0.0 0.0 0.00 0.00 0.00 18 1010.8
20260506222518 32 68 0.0 1.6 0.00 0.00 0.00 18 1010.9
20260506222018 31 127 0.0 1.6 0.00 0.00 0.00 18 1011.0
20260506221518 31 179 0.0 1.6 0.00 0.00 0.00 18 1011.1
20260506221018 31 98 0.0 0.0 0.00 0.00 0.00 19 1011.1
20260506220519 31 132 0.0 0.0 0.00 0.00 0.00 18 1011.3
20260506220019 31 91 0.0 0.0 0.00 0.00 0.00 18 1011.4
20260506215519 31 65 0.0 1.6 0.00 0.00 0.00 19 1011.5
20260506215019 31 112 0.0 1.6 0.00 0.00 0.00 18 1011.6
20260506214519 31 304 0.0 0.0 0.00 0.00 0.00 18 1011.6
20260506214019 31 105 0.0 1.6 0.00 0.00 0.00 19 1011.7
20260506213519 31 331 0.0 3.2 0.00 0.00 0.00 18 1011.8
20260506213019 30 149 0.0 1.6 0.00 0.00 0.00 19 1011.9
20260506212519 30 110 0.0 0.0 0.00 0.00 0.00 19 1011.9
20260506212019 30 122 0.0 1.6 0.00 0.00 0.00 18 1012.0
20260506211519 31 105 0.0 1.6 0.00 0.00 0.00 19 1012.0
20260506211019 31 98 0.0 6.4 0.00 0.00 0.00 19 1012.1
20260506210519 31 357 0.0 3.2 0.00 0.00 0.00 19 1012.1
20260506210019 30 103 0.0 0.0 0.00 0.00 0.00 19 1012.3
20260506205519 30 56 0.0 1.6 0.00 0.00 0.00 19 1012.3
20260506205019 30 78 0.0 1.6 0.00 0.00 0.00 20 1012.3
20260506204519 30 9 0.0 0.0 0.00 0.00 0.00 20 1012.4
20260506204019 30 114 0.0 3.2 0.00 0.00 0.00 20 1012.6
20260506203519 30 98 0.0 1.6 0.00 0.00 0.00 20 1012.6
20260506203019 30 56 0.0 1.6 0.00 0.00 0.00 20 1012.7
20260506202519 30 95 0.0 1.6 0.00 0.00 0.00 20 1012.7
20260506202019 30 47 0.0 1.6 0.00 0.00 0.00 22 1012.8
20260506201519 29 92 0.0 0.0 0.00 0.00 0.00 22 1012.9
20260506201019 30 243 0.0 0.0 0.00 0.00 0.00 21 1013.0
20260506200519 30 102 0.0 1.6 0.00 0.00 0.00 21 1013.1
20260506200019 29 170 0.0 3.2 0.00 0.00 0.00 22 1013.2
20260506195519 28 124 0.0 0.0 0.00 0.00 0.00 23 1013.3
20260506195019 29 120 0.0 0.0 0.00 0.00 0.00 22 1013.4
20260506194519 28 155 0.0 0.0 0.00 0.00 0.00 23 1013.4
20260506194019 29 110 0.0 0.0 0.00 0.00 0.00 22 1013.5
20260506193519 29 331 0.0 0.0 0.00 0.00 0.00 22 1013.6
20260506193019 28 121 0.0 4.8 0.00 0.00 0.00 23 1013.7
20260506192519 28 129 0.0 3.2 0.00 0.00 0.00 23 1013.8
20260506192019 28 89 0.0 1.6 0.00 0.00 0.00 23 1013.9
20260506191519 28 84 0.0 0.0 0.00 0.00 0.00 23 1013.9
20260506191019 28 133 0.0 0.0 0.00 0.00 0.00 23 1014.0
20260506190519 28 122 0.0 1.6 0.00 0.00 0.00 23 1014.0
20260506190019 28 142 0.0 0.0 0.00 0.00 0.00 24 1014.1
20260506185519 27 266 0.0 0.0 0.00 0.00 0.00 24 1014.2
20260506185019 27 357 0.0 0.0 0.00 0.00 0.00 24 1014.2
20260506184519 27 79 0.0 0.0 0.00 0.00 0.00 24 1014.3
20260506184019 27 90 0.0 0.0 0.00 0.00 0.00 24 1014.4
20260506183519 27 13 0.0 1.6 0.00 0.00 0.00 24 1014.5
20260506183019 27 60 0.0 0.0 0.00 0.00 0.00 26 1014.5
20260506182519 27 22 0.0 0.0 0.00 0.00 0.00 26 1014.6
20260506182019 27 119 0.0 0.0 0.00 0.00 0.00 27 1014.6
20260506181519 26 112 0.0 0.0 0.00 0.00 0.00 27 1014.6
20260506181020 26 153 0.0 0.0 0.00 0.00 0.00 28 1014.6
20260506180520 25 76 0.0 0.0 0.00 0.00 0.00 28 1014.6
20260506180020 26 97 0.0 0.0 0.00 0.00 0.00 28 1014.7
20260506175520 26 99 0.0 0.0 0.00 0.00 0.00 27 1014.6
20260506175020 26 69 0.0 0.0 0.00 0.00 0.00 28 1014.7
20260506174520 25 109 0.0 0.0 0.00 0.00 0.00 29 1014.7
20260506174020 25 109 0.0 0.0 0.00 0.00 0.00 29 1014.7
20260506173520 25 45 0.0 0.0 0.00 0.00 0.00 30 1014.7
20260506173020 25 88 0.0 0.0 0.00 0.00 0.00 29 1014.7
20260506172520 26 108 0.0 0.0 0.00 0.00 0.00 30 1014.8
20260506172020 25 333 0.0 0.0 0.00 0.00 0.00 30 1014.7
20260506171520 25 122 0.0 1.6 0.00 0.00 0.00 30 1014.8
20260506171020 24 139 0.0 1.6 0.00 0.00 0.00 31 1014.7
20260506170520 23 91 0.0 1.6 0.00 0.00 0.00 32 1014.7
20260506170020 23 13 0.0 6.4 0.00 0.00 0.00 32 1014.7
20260506165520 23 71 0.0 0.0 0.00 0.00 0.00 33 1014.6
20260506165020 23 90 0.0 0.0 0.00 0.00 0.00 32 1014.7
20260506164520 23 96 0.0 1.6 0.00 0.00 0.00 32 1014.7
20260506164020 24 90 0.0 1.6 0.00 0.00 0.00 31 1014.7
20260506163520 23 94 0.0 0.0 0.00 0.00 0.00 31 1014.6
20260506163020 23 20 0.0 0.0 0.00 0.00 0.00 31 1014.6
20260506162520 23 118 0.0 0.0 0.00 0.00 0.00 30 1014.7
20260506162020 23 204 0.0 0.0 0.00 0.00 0.00 31 1014.7
20260506161520 23 158 0.0 0.0 0.00 0.00 0.00 32 1014.6
20260506161020 23 158 0.0 0.0 0.00 0.00 0.00 31 1014.6
20260506160520 23 311 0.0 0.0 0.00 0.00 0.00 32 1014.6
20260506160020 23 276 0.0 0.0 0.00 0.00 0.00 33 1014.6
20260506155520 23 143 0.0 0.0 0.00 0.00 0.00 34 1014.6
20260506155020 23 155 0.0 0.0 0.00 0.00 0.00 34 1014.5
20260506154520 22 109 0.0 0.0 0.00 0.00 0.00 36 1014.6
20260506154020 22 91 0.0 0.0 0.00 0.00 0.00 38 1014.6
20260506153520 22 90 0.0 0.0 0.00 0.00 0.00 37 1014.5
20260506153020 21 103 0.0 0.0 0.00 0.00 0.00 38 1014.5
20260506152520 21 162 0.0 0.0 0.00 0.00 0.00 38 1014.6
20260506152020 21 143 0.0 0.0 0.00 0.00 0.00 39 1014.5
20260506151520 20 92 0.0 0.0 0.00 0.00 0.00 43 1014.6
20260506151020 20 92 0.0 0.0 0.00 0.00 0.00 43 1014.6
20260506150520 20 92 0.0 0.0 0.00 0.00 0.00 45 1014.5
20260506150020 19 103 0.0 0.0 0.00 0.00 0.00 46 1014.5
20260506145520 19 103 0.0 0.0 0.00 0.00 0.00 46 1014.5
20260506145020 18 96 0.0 0.0 0.00 0.00 0.00 49 1014.5
20260506144520 18 96 0.0 0.0 0.00 0.00 0.00 49 1014.5
20260506144020 17 96 0.0 0.0 0.00 0.00 0.00 52 1014.5
20260506143520 17 141 0.0 0.0 0.00 0.00 0.00 52 1014.4
20260506143020 16 105 0.0 0.0 0.00 0.00 0.00 54 1014.4
20260506142520 16 124 0.0 0.0 0.00 0.00 0.00 55 1014.3
20260506142021 16 142 0.0 0.0 0.00 0.00 0.00 56 1014.3
20260506141520 15 132 0.0 0.0 0.00 0.00 0.00 58 1014.3
20260506141021 15 108 0.0 0.0 0.00 0.00 0.00 60 1014.3
20260506140521 15 146 0.0 0.0 0.00 0.00 0.00 61 1014.2
20260506140021 14 145 0.0 0.0 0.00 0.00 0.00 62 1014.2
20260506135521 13 145 0.0 0.0 0.00 0.00 0.00 63 1014.0
20260506135021 13 145 0.0 0.0 0.00 0.00 0.00 65 1013.9
20260506134521 13 197 0.0 0.0 0.00 0.00 0.00 67 1013.9
20260506134021 12 197 0.0 0.0 0.00 0.00 0.00 68 1013.8
20260506133521 12 198 0.0 0.0 0.00 0.00 0.00 67 1013.8
20260506133021 12 198 0.0 0.0 0.00 0.00 0.00 67 1013.8
20260506132521 12 198 0.0 0.0 0.00 0.00 0.00 68 1013.7
20260506132021 12 198 0.0 0.0 0.00 0.00 0.00 67 1013.7
20260506131521 12 197 0.0 0.0 0.00 0.00 0.00 67 1013.6
20260506131021 12 198 0.0 0.0 0.00 0.00 0.00 67 1013.6
20260506130521 12 198 0.0 0.0 0.00 0.00 0.00 67 1013.4
20260506130021 12 197 0.0 0.0 0.00 0.00 0.00 66 1013.4
20260506125521 12 197 0.0 0.0 0.00 0.00 0.00 65 1013.4
20260506125021 12 197 0.0 0.0 0.00 0.00 0.00 64 1013.4
20260506124521 12 198 0.0 0.0 0.00 0.00 0.00 64 1013.3
20260506124021 12 197 0.0 0.0 0.00 0.00 0.00 64 1013.3
20260506123521 12 197 0.0 0.0 0.00 0.00 0.00 64 1013.1
20260506123021 12 198 0.0 0.0 0.00 0.00 0.00 65 1013.1
20260506122521 12 198 0.0 0.0 0.00 0.00 0.00 65 1013.1
20260506122021 12 197 0.0 0.0 0.00 0.00 0.00 64 1013.0
20260506121521 12 203 0.0 0.0 0.00 0.00 0.00 64 1013.0
20260506121021 12 203 0.0 0.0 0.00 0.00 0.00 65 1013.0
20260506120521 12 222 0.0 0.0 0.00 0.00 0.00 66 1013.0
20260506120021 12 222 0.0 0.0 0.00 0.00 0.00 66 1012.9
20260506115521 12 222 0.0 0.0 0.00 0.00 0.00 66 1012.9
20260506115021 12 221 0.0 0.0 0.00 0.00 0.00 65 1012.9
20260506114521 12 222 0.0 0.0 0.00 0.00 0.00 65 1012.8
20260506114021 12 222 0.0 0.0 0.00 0.00 0.00 64 1012.8
20260506113521 12 222 0.0 0.0 0.00 0.00 0.00 65 1012.8
20260506113021 13 222 0.0 0.0 0.00 0.00 0.00 62 1012.8
20260506112521 13 221 0.0 0.0 0.00 0.00 0.00 62 1012.7
20260506112021 13 222 0.0 0.0 0.00 0.00 0.00 61 1012.7
20260506111521 13 222 0.0 0.0 0.00 0.00 0.00 60 1012.8
20260506111021 13 222 0.0 0.0 0.00 0.00 0.00 60 1012.7
20260506110521 13 222 0.0 0.0 0.00 0.00 0.00 60 1012.7
20260506110021 13 222 0.0 0.0 0.00 0.00 0.00 60 1012.8
20260506105521 13 222 0.0 0.0 0.00 0.00 0.00 61 1012.7
20260506105021 13 222 0.0 0.0 0.00 0.00 0.00 62 1012.7
20260506104521 13 222 0.0 0.0 0.00 0.00 0.00 61 1012.7
20260506104021 13 222 0.0 0.0 0.00 0.00 0.00 62 1012.6
20260506103521 13 222 0.0 0.0 0.00 0.00 0.00 63 1012.7
20260506103021 13 222 0.0 0.0 0.00 0.00 0.00 62 1012.6
20260506102522 13 222 0.0 0.0 0.00 0.00 0.00 62 1012.6
20260506102021 13 222 0.0 0.0 0.00 0.00 0.00 62 1012.6
20260506101521 13 222 0.0 0.0 0.00 0.00 0.00 61 1012.4
20260506101021 13 222 0.0 0.0 0.00 0.00 0.00 61 1012.3
20260506100522 13 222 0.0 0.0 0.00 0.00 0.00 60 1012.4
20260506100022 13 222 0.0 0.0 0.00 0.00 0.00 59 1012.4
20260506095522 13 222 0.0 0.0 0.00 0.00 0.00 58 1012.4
20260506095022 14 222 0.0 0.0 0.00 0.00 0.00 57 1012.4
20260506094522 14 222 0.0 0.0 0.00 0.00 0.00 57 1012.4
20260506094022 14 222 0.0 0.0 0.00 0.00 0.00 57 1012.3
20260506093522 14 297 0.0 0.0 0.00 0.00 0.00 57 1012.3
20260506093022 14 297 0.0 0.0 0.00 0.00 0.00 56 1012.5
20260506092522 14 298 0.0 0.0 0.00 0.00 0.00 56 1012.5
20260506092022 14 301 0.0 0.0 0.00 0.00 0.00 56 1012.5
20260506091522 15 301 0.0 0.0 0.00 0.00 0.00 56 1012.6
20260506091022 15 300 0.0 0.0 0.00 0.00 0.00 56 1012.6
20260506090522 15 300 0.0 0.0 0.00 0.00 0.00 55 1012.5
20260506090022 15 301 0.0 0.0 0.00 0.00 0.00 54 1012.5
20260506085522 15 301 0.0 0.0 0.00 0.00 0.00 52 1012.5
20260506085022 15 281 0.0 0.0 0.00 0.00 0.00 51 1012.6
20260506084522 15 281 0.0 0.0 0.00 0.00 0.00 51 1012.6